Find Starlink 11365

NORAD ID: 62886 Int'l Des: 2025-024 Owner: SPXS Country: US Constellation: starlink operational
又名: STARLINK-11365 [DTC] celestrak
LEOCIRCULAR

当前视图

正在加载3D地球...

About Starlink 11365

Starlink 11365 (NORAD 62886) is a starlink constellation satellite (v2 mini d2c) launched Feb 4, 2025 by SPXS of US. It operates in LEO, CIRCULAR orbit with a mass of 960.00 kg.

即将过境

Passes for default location (London). Set your location on the main map for personalized predictions.

高度历史

Loading altitude history...

两行轨道根数

1 62886U 25024H 26263.91324239 .00126167 00000-0 96715-3 0 9999
2 62886 43.0007 84.4022 0000645 4.8689 355.2185 15.70956555 94174
Epoch: Sep 20, 2026 • Age: 34 hours

当前状态

高度 354.9 km
远地点 / 近地点 N/A
速度 7.70 km/s
星下点 3.26°N, 127.71°E
发射日期 Feb 4, 2025
运行时间 1.6 years
类型 internet

技术详情

分类 Payload
质量 960.00 kg
干质量 910.00 kg
长度 0.30 m
跨度 29.00 m
形状 ? Box + pan
制造商 SPXS
平台类型 Starlink V2MD
阶段状态 In Orbit
所有者/国家 SPXS/US

Most Searched